General Aviation Weather

Text Reports

Enter one or more of the following location identifiers separated by a space:

Zip Code, Four-Character ICAO or Three-Character IATA airport codes.

METAR - Aviation Routine Weather Report
KSGH - Springfield, Ohio
Updated at 4:56 AM GMT on July 31, 2014 (12:56 AM EDT):
METAR KSGH 310456Z AUTO 31005KT 8SM SCT024 BKN110 17/17 A3009 RMK AO2 T01660166 LTG DSNT NE SLP185
TAF - Terminal Area Forecast
KSGH - Springfield, Ohio
Updated at 4:56 AM GMT on July 31, 2014 (12:56 AM EDT):
No TAF is currently available for this location.
Decoded:
No decoded TAF is available.
PIREP - Pilot Weather Report
KSGH - Springfield, Ohio
Updated at 4:56 AM GMT on July 31, 2014 (12:56 AM EDT):
No PIREP is currently available for this location.
AIRMET - Airmens Meteorological Information
KSGH - Springfield, Ohio
Updated at 4:56 AM GMT on July 31, 2014 (12:56 AM EDT):
No AIRMET is currently available for this location.
SIGMET - Significant Meteorological Information
KSGH - Springfield, Ohio
Updated at 4:56 AM GMT on July 31, 2014 (12:56 AM EDT):
No SIGMET is currently available for this location.
NOTAM - Notice to Airmen
KSGH - Springfield, Ohio
Updated at 4:56 AM GMT on July 31, 2014 (12:56 AM EDT):
No NOTAM is currently available for this location.
Forecast Area
KSGH - Springfield, Ohio
Updated at 4:56 AM GMT on July 31, 2014 (12:56 AM EDT):
No NOTAM is currently available for this location.
Aviation Weather Maps